Regional Weather Roundup
Issued by NWS

Home | Current Version | Previous Version | Text Only | Print | Product List | Glossary Off
Versions: 1 2 3 4 5 6 7 8 9 10 11 12 13 14 15 16 17 18 19 20 21 22 23 24 25 26 27 28 29 30 31 32 33 34 35 36 37 38 39 40 41 42 43 44 45 46 47 48 49 50

000
ASUS43 KTOP 281159
RWRKS

WEATHER ROUNDUP FOR KANSAS
NATIONAL WEATHER SERVICE GOODLAND KS
700 AM CDT WED JUN 28 2017

NOTE:  "FAIR" INDICATES FEW OR NO CLOUDS BELOW 12,000 FEET WITH NO
SIGNIFICANT WEATHER AND/OR OBSTRUCTIONS TO VISIBILITY.

KSZ001>006-013>018-027>032-041>047-281300-
NORTHWEST KANSAS

CITY           SKY/WX    TMP DP  RH WIND       PRES   REMARKS
GOODLAND       CLEAR     60  58  92 NW7       29.83R
6HR MIN TEMP:  59; 6HR MAX TEMP:  69;

HAYS           PTCLDY    70  65  84 SE14      29.76F
HILL CITY      CLEAR     70  64  81 S12       29.74S
6HR MIN TEMP:  69; 6HR MAX TEMP:  76; 6HR PCP:  0.28;

RUSSELL        MOCLDY    69  65  86 SE20      29.75F
6HR MIN TEMP:  68; 6HR MAX TEMP:  82; 6HR PCP:  0.17;

$$

KSZ061>065-074>080-084>089-281300-
SOUTHWEST KANSAS

CITY           SKY/WX    TMP DP  RH WIND       PRES   REMARKS
DODGE CITY     CLEAR     70  65  84 SE15      29.80S
6HR MIN TEMP:  70; 6HR MAX TEMP:  78; 6HR PCP:  0.01;

ELKHART          N/A     69  48  47 SW10        N/A
GARDEN CITY    CLEAR     70  59  68 S13       29.77F
6HR MIN TEMP:  70; 6HR MAX TEMP:  78; 6HR PCP: TRACE;

GREAT BEND     MOCLDY    73  67  81 S18       29.80R
LIBERAL        PTCLDY    72  61  68 S16G26    29.80R
$$

KSZ066>073-081>083-090>101-281300-
SOUTHEAST KANSAS

CITY           SKY/WX    TMP DP  RH WIND       PRES   REMARKS
CHANUTE          N/A    N/A N/A N/A MISG      29.93R
COFFEYVILLE    PTCLDY    69  65  86 S7        29.94R
6HR MIN TEMP:  69; 6HR MAX TEMP:  74;

HUTCHINSON     CLOUDY    74  66  76 S24       29.81F
6HR MIN TEMP:  74; 6HR MAX TEMP:  79;

MEDICINE LODGE   N/A     72  65  78 E7        29.87R
NEWTON         CLOUDY    72  66  81 S21       29.86F
PARSONS        CLOUDY    70  64  81 S6        29.95R
6HR MIN TEMP:  70; 6HR MAX TEMP:  75;

WICHITA INTL   CLOUDY    72  68  87 S9        29.88S
6HR MIN TEMP:  72; 6HR MAX TEMP:  78;

WICHITA JABRA  CLOUDY    72  68  87 S10       29.88R
6HR MIN TEMP:  72; 6HR MAX TEMP:  77;

WINFIELD       MOCLDY    72  68  87 S14       29.89S
6HR MIN TEMP:  72; 6HR MAX TEMP:  76;

$$

KSZ007>012-019>026-033>040-048>060-102>105-281300-
NORTHEAST KANSAS

CITY           SKY/WX    TMP DP  RH WIND       PRES   REMARKS
CONCORDIA      CLOUDY    72  64  76 S13       29.74R
6HR MIN TEMP:  71; 6HR MAX TEMP:  80; 6HR PCP:  0.01;

EMPORIA        CLOUDY    71  67  87 S14       29.87S
6HR MIN TEMP:  71; 6HR MAX TEMP:  73;

LAWRENCE       CLOUDY    74  67  78 S10G18    29.86F
6HR MIN TEMP:  73; 6HR MAX TEMP:  75;

MANHATTAN      LGT RAIN  74  67  78 S36G52    29.71F
6HR MIN TEMP:  74; 6HR MAX TEMP:  77; 6HR PCP: TRACE;

OLATHE IND     PTSUNNY   72  65  78 S17G26    29.88F
6HR MIN TEMP:  71; 6HR MAX TEMP:  73;

OLATHE EXE     CLOUDY    70  65  84 S13G20    29.88F
6HR MIN TEMP:  70; 6HR MAX TEMP:  72;

SALINA         MOCLDY    74  67  78 SE20      29.78F
6HR MIN TEMP:  72; 6HR MAX TEMP:  82; 6HR PCP:  0.05;

TOPEKA BILLARD CLOUDY    74  68  81 S14G22    29.84R
6HR MIN TEMP:  74; 6HR MAX TEMP:  76;

TOPEKA FORBES  CLOUDY    75  67  76 S17G28    29.85R
6HR MIN TEMP:  75; 6HR MAX TEMP:  77;

$$




USA.gov is the U.S. government's official web portal to all federal, state and local government web resources and services.